Location: ????????
(60.5616°N, 46.8254°E)
Time: 14:41:24
(UTC+00:00)

Cosmos 2219 Rocket - Pass Details

Date: 18 February 2020
Orbit: 828 x 846 km, 71.0° (Epoch: 27 March)

Event Time Altitude Azimuth Distance (km) Brightness Sun altitude
Exits shadow 22:37:44 21° 72° (ENE) 1,825 4.3 -38.2°
Drops below altitude 10° 22:40:11 10° 51° (NE) 2,481 5.3 -38.1°
Sets 22:42:58 0° 40° (NE) 3,419 6.3 -37.9°
